Weather History for Spirit of St Louis, MO

Change the Weather History Date:

Tuesday, June 10, 2014

  Actual Average Record
Temperature  
Mean Temperature 71 °F -  
Max Temperature 80 °F 79 °F 93 °F (1999)
Min Temperature 63 °F 60 °F 55 °F (1997)
Cooling Degree Days 6    
Growing Degree Days 21 (Base 50)    
Moisture  
Dew Point 64 °F    
Average Humidity 89    
Maximum Humidity 100    
Minimum Humidity 61    
Precipitation  
Precipitation 0.59 in - - ()
Sea Level Pressure  
Sea Level Pressure 29.70 in    
Wind  
Wind Speed 6 mph (SE)    
Max Wind Speed 14 mph    
Max Gust Speed 22 mph    
Visibility 6 miles    
Events Fog , Rain , Thunderstorm    
Averages and records for this station are not official NWS values.
T = Trace of Precipitation, MM = Missing Value Source: NWS Daily Summary

Daily Weather History Graph

Daily Weather History Graph

Search for Another Location

Airport:

Trip Planner

Search our weather history database for the weather conditions in past years. The results will help you decide how hot, cold, wet, or windy it might be!

Date:

Astronomy

Jun. 10, 2014 Rise Set
Actual Time 5:37 AM CDT 8:26 PM CDT
Civil Twilight 5:05 AM CDT 8:58 PM CDT
Nautical Twilight 4:26 AM CDT 9:38 PM CDT
Astronomical Twilight 3:40 AM CDT 10:23 PM CDT
Moon 5:53 PM CDT (6/10) 3:41 AM CDT (6/10)
Length of Visible Light 15h 52m
Length of Day
14h 49m
Waxing Gibbous, 92% of the Moon is Illuminated
Jun 10
Waxing Gibbous
Jun 12
Full
Jun 19
Last Quarter
Jun 27
New
Jul 5
First Quarter

Hourly Weather History & Observations

Time (CDT) Temp. Dew Point Humidity Pressure Visibility Wind Dir Wind Speed Gust Speed Precip Events Conditions
12:01 AM 64.4 °F 62.6 °F 94% 29.74 in 3.0 mi ENE 11.5 mph - 0.00 in Rain Light Rain
12:12 AM 64.4 °F 62.6 °F 94% 29.74 in 2.5 mi ENE 9.2 mph - 0.01 in Rain Light Rain
12:54 AM 64.0 °F 62.1 °F 93% 29.71 in 2.0 mi East 10.4 mph - 0.09 in Rain Light Rain
1:17 AM 64.4 °F 62.6 °F 94% 29.72 in 4.0 mi East 6.9 mph - 0.02 in Rain Light Rain
1:54 AM 64.0 °F 62.1 °F 93% 29.70 in 6.0 mi East 5.8 mph - 0.02 in Rain Light Rain
2:54 AM 64.0 °F 63.0 °F 96% 29.68 in 5.0 mi East 3.5 mph - 0.01 in   Overcast
3:42 AM 64.4 °F 62.6 °F 94% 29.70 in 4.0 mi Calm Calm - 0.00 in Rain Light Rain
3:54 AM 64.9 °F 64.0 °F 97% 29.68 in 4.0 mi ENE 3.5 mph - 0.00 in Rain Light Rain
4:17 AM 64.4 °F 64.4 °F 100% 29.70 in 4.0 mi Calm Calm - N/A   Overcast
4:54 AM 66.0 °F 64.0 °F 93% 29.68 in 8.0 mi Calm Calm - 0.00 in   Overcast
5:54 AM 66.9 °F 64.9 °F 93% 29.70 in 6.0 mi SE 4.6 mph - N/A   Overcast
6:54 AM 66.9 °F 64.9 °F 93% 29.70 in 10.0 mi ESE 3.5 mph - N/A   Mostly Cloudy
7:19 AM 68.0 °F 66.2 °F 94% 29.72 in 10.0 mi ESE 5.8 mph - N/A   Mostly Cloudy
7:54 AM 69.1 °F 64.9 °F 87% 29.71 in 10.0 mi South 5.8 mph - N/A   Mostly Cloudy
8:54 AM 70.0 °F 66.0 °F 87% 29.72 in 10.0 mi SSE 5.8 mph - N/A   Overcast
9:54 AM 71.6 °F 66.2 °F 83% 29.74 in 10.0 mi South 6.9 mph - N/A   Overcast
10:28 AM 71.6 °F 66.2 °F 83% 29.73 in 10.0 mi Variable 3.5 mph - N/A   Mostly Cloudy
10:36 AM 73.4 °F 66.2 °F 78% 29.73 in 10.0 mi Calm Calm - N/A   Mostly Cloudy
10:54 AM 73.0 °F 66.0 °F 79% 29.71 in 10.0 mi SSE 4.6 mph - N/A   Mostly Cloudy
11:01 AM 73.4 °F 66.2 °F 78% 29.73 in 10.0 mi Variable 3.5 mph - N/A   Mostly Cloudy
11:54 AM 77.0 °F 66.2 °F 69% 29.71 in 10.0 mi Calm Calm - N/A   Mostly Cloudy
12:54 PM 77.0 °F 64.9 °F 66% 29.68 in 10.0 mi East 4.6 mph - N/A   Mostly Cloudy
1:54 PM 78.8 °F 64.4 °F 61% 29.67 in 10.0 mi ESE 4.6 mph - N/A   Mostly Cloudy
2:34 PM 78.8 °F 64.4 °F 61% 29.66 in 10.0 mi Variable 5.8 mph - N/A Thunderstorm Thunderstorm
2:54 PM 69.1 °F 62.1 °F 78% 29.66 in 10.0 mi WSW 8.1 mph 21.9 mph N/A Thunderstorm Thunderstorm
3:42 PM 66.2 °F 64.4 °F 94% 29.70 in 2.5 mi SW 13.8 mph - 0.12 in Rain , Thunderstorm Heavy Thunderstorms and Rain
3:44 PM 66.2 °F 62.6 °F 88% 29.69 in 0.8 mi SSW 13.8 mph - 0.34 in Rain , Thunderstorm Heavy Thunderstorms and Rain
3:47 PM 64.4 °F 62.6 °F 94% 29.70 in 0.2 mi WSW 10.4 mph 17.3 mph 0.58 in Fog , Rain Heavy Rain
3:54 PM 64.4 °F 62.6 °F 94% 29.70 in 0.2 mi WSW 6.9 mph - N/A Fog , Rain Heavy Rain
4:00 PM 64.4 °F 62.6 °F 94% 29.71 in 0.5 mi West 6.9 mph - 0.13 in Fog , Rain Heavy Rain
4:06 PM 64.4 °F 62.6 °F 94% 29.71 in 1.0 mi West 5.8 mph - 0.17 in Rain , Thunderstorm Heavy Thunderstorms and Rain
4:13 PM 64.4 °F 62.6 °F 94% 29.71 in 2.0 mi SSE 5.8 mph - 0.19 in Rain , Thunderstorm Thunderstorms and Rain
4:28 PM 64.4 °F 62.6 °F 94% 29.71 in 4.0 mi WNW 4.6 mph - 0.21 in Rain , Thunderstorm Thunderstorms and Rain
4:54 PM 64.9 °F 63.0 °F 93% 29.71 in 3.0 mi East 3.5 mph - 0.30 in Rain , Thunderstorm Thunderstorms and Rain
5:01 PM 64.4 °F 62.6 °F 94% 29.71 in 3.0 mi Calm Calm - 0.02 in Rain , Thunderstorm Thunderstorms and Rain
5:54 PM 64.9 °F 63.0 °F 93% 29.68 in 4.0 mi ENE 6.9 mph - 0.15 in Rain Rain
6:18 PM 64.4 °F 62.6 °F 94% 29.69 in 9.0 mi NE 4.6 mph - 0.02 in Rain Light Rain
6:54 PM 64.9 °F 63.0 °F 93% 29.68 in 9.0 mi East 3.5 mph - 0.02 in   Mostly Cloudy
7:05 PM 64.4 °F 62.6 °F 94% 29.69 in 10.0 mi East 4.6 mph - N/A   Overcast
7:54 PM 66.0 °F 63.0 °F 90% 29.69 in 10.0 mi Calm Calm - N/A   Mostly Cloudy
8:54 PM 64.9 °F 64.0 °F 97% 29.69 in 10.0 mi Calm Calm - N/A   Overcast
9:54 PM 64.4 °F 62.6 °F 94% 29.72 in 10.0 mi WNW 4.6 mph - N/A   Mostly Cloudy
10:54 PM 64.0 °F 62.1 °F 93% 29.70 in 10.0 mi Calm Calm - N/A   Scattered Clouds
11:54 PM 63.0 °F 62.1 °F 97% 29.70 in 10.0 mi WSW 3.5 mph - N/A   Scattered Clouds